Regional Weather Roundup
Issued by NWS Charleston, WV

Home | Current Version | Previous Version | Text Only | Print | Product List | Glossary On
Versions: 1 2 3 4 5 6 7 8 9 10 11 12 13 14 15 16 17 18 19 20 21 22 23 24 25 26 27 28 29 30 31 32 33 34 35 36 37 38 39 40 41 42 43 44 45 46 47 48 49 50
000
ASUS41 KRLX 302110
RWRRLX
West Virginia Regional Weather Roundup
National Weather Service Charleston WV
500 PM EDT THU JUL 30 2015

Note: "fair" indicates few or no clouds below 12,000 feet with no
significant weather and/or obstructions to visibility.

WVZ003-302200-
Northern Panhandle of West Virginia

CITY           SKY/WX    TMP DP  RH WIND       PRES   REMARKS
WHEELING       SUNNY     84  54  35 W12G22    29.97S
$$

WVZ009-302200-
Northwest West Virginia

CITY           SKY/WX    TMP DP  RH WIND       PRES   REMARKS
PARKERSBURG    SUNNY     88  57  34 NW10      30.00F
$$

WVZ006-302200-
Western West Virginia

CITY           SKY/WX    TMP DP  RH WIND       PRES   REMARKS
HUNTINGTON     SUNNY     86  59  39 NW10      30.00F
$$

WVZ015-302200-
West Central West Virginia

CITY           SKY/WX    TMP DP  RH WIND       PRES   REMARKS
CHARLESTON     MOSUNNY   85  61  44 W7G17     29.99F
$$

WVZ022-031-302200-
North Central West Virginia

CITY           SKY/WX    TMP DP  RH WIND       PRES   REMARKS
CLARKSBURG     SUNNY     84  58  40 W10       29.97F
MORGANTOWN     SUNNY     88  54  31 W9G16     29.97F
$$

WVZ025-035-042-045-302200-
Southern West Virginia

CITY           SKY/WX    TMP DP  RH WIND       PRES   REMARKS
BECKLEY        MOSUNNY   80  63  55 NW10      30.06F
LOGAN            N/A     82  63  51 NW9       30.00F
BLUEFIELD      MOSUNNY   83  67  58 NW5       30.08F
LEWISBURG      MOSUNNY   83  64  51 N8G20     30.03R
$$

WVZ047-302200-
Northern Mountains of West Virginia

CITY           SKY/WX    TMP DP  RH WIND       PRES   REMARKS
ELKINS         MOSUNNY   82  62  50 NW10      30.01S
$$

WVZ052-302200-
Eastern Panhandle of West Virginia

CITY           SKY/WX    TMP DP  RH WIND       PRES   REMARKS
MARTINSBURG    PTSUNNY   89  66  46 NW14G20   29.87S
PETERSBURG     MOSUNNY  N/A N/A N/A NW7       29.92S
$$



USA.gov is the U.S. government's official web portal to all federal, state and local government web resources and services.